Estación de Trinidad
Ultimos registro cada 15 minutos 26
| N° | Estación | Fecha / Hora | Temperatura | Humedad | Lluvia | Velocidad | Dirección | Radiación | Presion |
| 26 | Trinidad | 05-05-2026 06:15 | 10,1 | 89 | 0 | 1,3 | 126 | 0 | 1016,1 |
| 25 | Trinidad | 05-05-2026 06:00 | 10,2 | 89 | 0 | 0,9 | 163 | 0 | 1016,7 |
| 24 | Trinidad | 05-05-2026 05:45 | 10,3 | 89 | 0 | 0,9 | 303 | 0 | 1015,9 |
| 23 | Trinidad | 05-05-2026 05:30 | 10,1 | 90 | 0 | 1,3 | 301 | 0 | 1016,2 |
| 22 | Trinidad | 05-05-2026 05:15 | 9,9 | 91 | 0 | 0,4 | 300 | 0 | 1016,1 |
| 21 | Trinidad | 05-05-2026 05:00 | 9,7 | 92 | 0 | 0,4 | 299 | 0 | 1016 |
| 20 | Trinidad | 05-05-2026 04:45 | 9,7 | 92 | 0 | 0 | 299 | 0 | 1016,6 |
| 19 | Trinidad | 05-05-2026 04:30 | 9,7 | 92 | 0 | 0 | 299 | 0 | 1015,9 |
| 18 | Trinidad | 05-05-2026 04:15 | 9,6 | 92 | 0 | 0 | 299 | 0 | 1016,3 |
| 17 | Trinidad | 05-05-2026 04:00 | 9,3 | 92 | 0 | 0 | 299 | 0 | 1015,4 |
| 16 | Trinidad | 05-05-2026 03:45 | 9,3 | 91 | 0 | 0 | 299 | 0 | 1015,5 |
| 15 | Trinidad | 05-05-2026 03:30 | 9,2 | 91 | 0 | 0 | 299 | 0 | 1015,8 |
| 14 | Trinidad | 05-05-2026 03:15 | 9,4 | 91 | 0 | 0 | 299 | 0 | 1016 |
| 13 | Trinidad | 05-05-2026 03:00 | 9,4 | 91 | 0 | 0 | 299 | 0 | 1016 |
| 12 | Trinidad | 05-05-2026 02:45 | 9,6 | 91 | 0 | 0 | 299 | 0 | 1016,3 |
| 11 | Trinidad | 05-05-2026 02:30 | 9,7 | 91 | 0 | 0 | 299 | 0 | 1016,2 |
| 10 | Trinidad | 05-05-2026 02:15 | 9,8 | 90 | 0 | 0 | 299 | 0 | 1016,6 |
| 9 | Trinidad | 05-05-2026 02:00 | 9,9 | 91 | 0 | 0 | 299 | 0 | 1016,6 |
| 8 | Trinidad | 05-05-2026 01:45 | 10,1 | 91 | 0 | 0 | 299 | 0 | 1016,5 |
| 7 | Trinidad | 05-05-2026 01:30 | 9,7 | 92 | 0 | 0 | 299 | 0 | 1016,5 |
| 6 | Trinidad | 05-05-2026 01:15 | 9,3 | 91 | 0 | 0 | 299 | 0 | 1016,5 |
| 5 | Trinidad | 05-05-2026 01:00 | 9,2 | 90 | 0 | 0 | 299 | 0 | 1016,7 |
| 4 | Trinidad | 05-05-2026 00:45 | 9,2 | 90 | 0 | 0 | 299 | 0 | 1016,8 |
| 3 | Trinidad | 05-05-2026 00:30 | 9,3 | 90 | 0 | 0 | 299 | 0 | 1017 |
| 2 | Trinidad | 05-05-2026 00:15 | 9,3 | 89 | 0 | 0 | 299 | 0 | 1016,8 |
| 1 | Trinidad | 05-05-2026 00:00 | 9,5 | 88 | 0 | 0 | 299 | 0 | 1016,8 |